NAVSTAR 79 (USA 304) (45854 NORAD) Tracking and Keplerian Element Data

This shows tracking and keplerian element data for the satellite.

Feedback or suggestion? Click here.




ElementValue
Catalog45854
NameNAVSTAR 79 (USA 304)
Epoch Orbit119
Epoch Day223.82412122
Epoch Year2020
RAAN113.2901
Inclination55.0792
Eccentricity0.0006487
Argument of Perigee91.513
Mean Anonmoly268.6201
Mean Motion2.00568201
Decay Rate-3.8E-07
L11 45854U 20041A 20223.82412122 -.00000038 00000-0 10000-3 0 9990
L22 45854 55.0792 113.2901 0006487 91.5130 268.6201 2.00568201 1197

Live tracking and technical data element details for NAVSTAR 79 (USA 304) (NORAD 45854). NAVSTAR 79 (USA 304) can be tracked NOW for your location showing map with azimuth and elevation plus other details from your city location.

Track the satellite on the map from your city or location and see movement details for azimuth, elevation, latitude, longitude, range, height, and movement on the map or in text.







IsCatalogInMostPopularTable: catalog: 45854, numindb: 5
Update: records affected: 1



GetName: 45854 NAVSTAR 79 (USA 304)

Hit Count: updated at: Fri, 14 Aug 2020 05:31:47 GMT